{"data":{"norad_id":66116,"epoch":"2026-05-24T23:34:49.766016Z","epoch_age_seconds":76868,"freshness":"FRESH","line1":"1 66116U 25237C   26144.98252044  .00017574  00000+0  60405-3 0  9991","line2":"2 66116  53.1615  45.0848 0001244  85.7632 274.3511 15.30201695 34297","mean_motion":15.30201695,"eccentricity":0.0001244,"inclination_deg":53.1615,"raan_deg":45.0848,"arg_perigee_deg":85.7632,"mean_anomaly_deg":274.3511,"bstar":0.00060405,"rev_number":3429,"period_min":94.105241466224,"perigee_km":474.35745209167,"apogee_km":476.06256482737,"semimajor_km":6853.3470084595,"source":"CELESTRAK","updated_at":"2026-05-25T13:38:21.061588Z"}}